Regional Weather Roundup
Issued by NWS Burlington, VT

Home | Current Version | Previous Version | Text Only | Print | Product List | Glossary On
Versions: 1 2 3 4 5 6 7 8 9 10 11 12 13 14 15 16 17 18 19 20 21 22 23 24 25 26 27 28 29 30 31 32 33 34 35 36 37 38 39 40 41 42 43 44 45 46 47 48 49 50
000
ASUS41 KBTV 020110
RWRBTV
VERMONT REGIONAL WEATHER ROUNDUP
NATIONAL WEATHER SERVICE BURLINGTON VT
900 PM EDT SUN MAY 01 2016

NOTE: "FAIR" INDICATES FEW OR NO CLOUDS BELOW 12,000 FEET WITH NO
SIGNIFICANT WEATHER AND/OR OBSTRUCTIONS TO VISIBILITY.

* THESE REPORTS ARE NOT UNDER NWS QUALITY CONTROL AND/OR DO NOT
  REPORT WEATHER SUCH AS PRECIPITATION AND FOG.

VTZ001>019-020200-
_____VERMONT_____


CITY           SKY/WX    TMP DP  RH WIND       PRES   REMARKS
BURLINGTON     LGT RAIN  47  43  86 S6        30.08S
MONTPELIER     LGT RAIN  42  38  85 SE12      30.12S
MORRISVILLE    CLOUDY    44  38  79 S9        30.11S
ST. JOHNSBURY*   N/A     46  43  89 MISG      30.11R
LYNDONVILLE*   DRIZZLE   44  41  90 SE6       30.12R
MIDDLEBURY*    LGT RAIN  45  45 100 S3        30.08S
RUTLAND*       CLOUDY    45  36  70 SE13      30.08F
SPRINGFIELD    CLOUDY    45  39  79 CALM      30.12F
HIGHGATE*      LGT RAIN  46  45  95 E3        30.08F
NEWPORT*       DRIZZLE   44  42  93 SE3       30.11S
BENNINGTON     CLOUDY    44  36  73 SE12      30.08F

_____LAKE CHAMPLAIN_____


CITY           SKY/WX    TMP DP  RH WIND       PRES   REMARKS
COLCHESTER RF*   N/A     45  43  93 S12         N/A
DIAMOND ISL*     N/A     45  45 100 SW5         N/A

$$

NYZ007-026>031-035-052-083-087-020200-
_____NORTHERN NEW YORK_____


CITY           SKY/WX    TMP DP  RH WIND       PRES   REMARKS
PLATTSBURGH    LGT RAIN  45  43  93 S7        30.07F
SARANAC LAKE   LGT RAIN  41  38  89 S3        30.02R FOG
MASSENA        LGT RAIN  46  44  93 NE7       30.06F FOG
OGDENSBURG*    CLOUDY    46  46 100 E5        30.04S FOG
WATERTOWN      CLOUDY    46  45  96 NE7       30.01R
FT DRUM        CLOUDY    45  44  95 E7        30.01R
ALBANY         CLOUDY    45  38  76 SE6       30.09S
GLENS FALLS    CLOUDY    46  40  79 S3        30.07F

$$
NHZ002-005-011-020200-
_____NEW HAMPSHIRE_____


CITY           SKY/WX    TMP DP  RH WIND       PRES   REMARKS
LEBANON        CLOUDY    46  39  76 SE5       30.11F
KEENE          CLOUDY    46  28  49 S7        30.13F
MT WASHINGTON  FOG       25  25 100 SE44        N/A  VSB 0   WCI   5
PLYMOUTH       CLOUDY    44  41  88 E6        30.15S
WHITEFIELD     CLOUDY    47  38  71 SE8       30.11S

$$

_____REGIONAL QUEBEC LOCATIONS_____


CITY           SKY/WX    TMP DP  RH WIND       PRES   REMARKS
MONTREAL       LGT RAIN  48  45  87 E6        30.09R FOG
QUEBEC CITY    CLOUDY    50  27  40 E7        30.13R
SHERBROOKE     LGT RAIN  46  45  93 E3        30.10S FOG

_____REGIONAL ONTARIO LOCATIONS_____


CITY           SKY/WX    TMP DP  RH WIND       PRES   REMARKS
OTTAWA         LGT RAIN  43  41  93 NE12      30.07F

______KEY______
VSB  - VISIBILITY IN MILES
WCI  - WIND CHILL INDEX
HX   - HEAT INDEX
$$
NNNN



USA.gov is the U.S. government's official web portal to all federal, state and local government web resources and services.